Terug naar catalogus

HERMES-6

ActiefWetenschapSSO
NORAD 63489·PAYLOAD·🇮🇹 Italy

Gelanceerd Mar 15, 2025 vanaf Vandenberg Space Force Base

Loading…

Volgende Passages (komende 24 uur)

TLE

VersSource: Space-Track

Epoch: Sep 13, 2026, 16:13 UTC

1 63489U 25052BK  26256.67574985  .00004045  00000-0  17027-3 0  9999
2 63489  97.3862 147.8806 0005104 204.2415 155.8583 15.23927057 83309

Volg HERMES-6 in realtime met AllMySat

Download on the App Store